| time (UTC) | temp F | wind direction | speed MPH | gust MPH | rain 1hr in | rain 24hr in | rain mn in | humidity % | barometer mb |
| 20260509134558 | 76 | 241 | 0.0 | 0.0 | 0.00 | 0.00 | 0.00 | 97 | 1008.5 |
| 20260509133103 | 76 | 241 | 0.0 | 0.0 | 0.00 | 0.00 | 0.00 | 97 | 1008.8 |
| 20260509131555 | 76 | 242 | 0.0 | 0.0 | 0.00 | 0.00 | 0.00 | 98 | 1008.8 |
| 20260509130050 | 75 | 241 | 0.0 | 0.0 | 0.00 | 0.00 | 0.00 | 98 | 1008.7 |
| 20260509124553 | 75 | 242 | 0.0 | 0.0 | 0.00 | 0.00 | 0.00 | 97 | 1008.9 |
| 20260509123047 | 75 | 242 | 0.0 | 0.0 | 0.00 | 0.00 | 0.00 | 97 | 1008.8 |
| 20260509121546 | 75 | 242 | 0.0 | 0.0 | 0.00 | 0.00 | 0.00 | 97 | 1008.7 |
| 20260509120044 | 74 | 241 | 0.0 | 0.0 | 0.00 | 0.00 | 0.00 | 97 | 1008.9 |
| 20260509114554 | 74 | 241 | 0.0 | 0.0 | 0.00 | 0.00 | 0.00 | 97 | 1008.7 |
| 20260509113045 | 74 | 241 | 0.0 | 0.0 | 0.00 | 0.00 | 0.00 | 97 | 1008.6 |
| 20260509111544 | 74 | 241 | 0.0 | 0.0 | 0.00 | 0.00 | 0.00 | 97 | 1008.5 |
| 20260509110042 | 74 | 241 | 0.0 | 0.0 | 0.00 | 0.00 | 0.00 | 97 | 1008.2 |
| 20260509104542 | 74 | 241 | 0.0 | 0.0 | 0.00 | 0.00 | 0.00 | 97 | 1008.0 |
| 20260509103040 | 74 | 242 | 0.0 | 0.0 | 0.00 | 0.00 | 0.00 | 97 | 1008.1 |
| 20260509101541 | 74 | 241 | 0.0 | 0.0 | 0.00 | 0.00 | 0.00 | 97 | 1007.9 |
| 20260509100040 | 74 | 241 | 0.0 | 0.0 | 0.00 | 0.00 | 0.00 | 97 | 1008.1 |
| 20260509094540 | 74 | 241 | 0.0 | 0.0 | 0.00 | 0.00 | 0.00 | 97 | 1007.9 |
| 20260509093039 | 74 | 242 | 0.0 | 0.0 | 0.00 | 0.00 | 0.00 | 97 | 1007.7 |
| 20260509091539 | 74 | 242 | 0.0 | 0.0 | 0.00 | 0.00 | 0.00 | 97 | 1007.6 |
| 20260509090038 | 74 | 242 | 0.0 | 0.0 | 0.00 | 0.00 | 0.00 | 97 | 1007.4 |
| 20260509084540 | 74 | 242 | 0.0 | 0.0 | 0.00 | 0.00 | 0.00 | 97 | 1007.6 |
| 20260509083037 | 73 | 241 | 0.0 | 0.0 | 0.00 | 0.00 | 0.00 | 97 | 1007.7 |
| 20260509081534 | 73 | 241 | 0.0 | 0.0 | 0.00 | 0.00 | 0.00 | 97 | 1007.9 |
| 20260509080047 | 73 | 241 | 0.0 | 0.0 | 0.00 | 0.00 | 0.00 | 97 | 1007.9 |
| 20260509074533 | 73 | 242 | 0.0 | 0.0 | 0.00 | 0.00 | 0.00 | 97 | 1008.3 |
| 20260509073054 | 73 | 241 | 0.0 | 0.0 | 0.00 | 0.00 | 0.00 | 97 | 1008.3 |
| 20260509071529 | 73 | 241 | 0.0 | 0.0 | 0.00 | 0.00 | 0.00 | 97 | 1008.4 |
| 20260509070029 | 73 | 242 | 0.0 | 0.0 | 0.00 | 0.00 | 0.00 | 96 | 1008.1 |
| 20260509064528 | 73 | 241 | 0.0 | 0.0 | 0.00 | 0.00 | 0.00 | 96 | 1008.2 |
| 20260509063029 | 73 | 241 | 0.0 | 0.0 | 0.00 | 0.00 | 0.00 | 96 | 1008.4 |
| 20260509061524 | 74 | 242 | 0.0 | 0.0 | 0.00 | 0.00 | 0.00 | 96 | 1008.4 |
| 20260509060021 | 74 | 241 | 0.0 | 0.0 | 0.00 | 0.00 | 0.00 | 96 | 1008.4 |
| 20260509054528 | 74 | 241 | 0.0 | 0.0 | 0.00 | 0.00 | 0.00 | 96 | 1008.4 |
| 20260509053018 | 75 | 242 | 0.0 | 0.0 | 0.00 | 0.00 | 0.00 | 95 | 1008.6 |
| 20260509051517 | 75 | 241 | 0.0 | 0.0 | 0.00 | 0.00 | 0.00 | 95 | 1008.5 |
| 20260509050015 | 75 | 241 | 0.0 | 0.0 | 0.00 | 0.00 | 0.00 | 95 | 1008.8 |
| 20260509044515 | 75 | 241 | 0.0 | 1.0 | 0.00 | 0.00 | 0.00 | 95 | 1008.9 |
| 20260509043029 | 75 | 241 | 0.0 | 0.0 | 0.00 | 0.00 | 0.00 | 95 | 1009.0 |
| 20260509041512 | 75 | 242 | 0.0 | 1.0 | 0.00 | 0.00 | 0.00 | 95 | 1008.8 |
| 20260509040011 | 75 | 241 | 0.0 | 0.0 | 0.00 | 0.00 | 0.00 | 95 | 1008.9 |
| 20260509034513 | 75 | 241 | 0.0 | 1.0 | 0.00 | 0.00 | 0.00 | 95 | 1008.5 |
| 20260509033010 | 75 | 241 | 0.0 | 0.0 | 0.00 | 0.00 | 0.00 | 95 | 1008.4 |
| 20260509031509 | 75 | 242 | 0.0 | 1.0 | 0.00 | 0.00 | 0.00 | 95 | 1008.2 |
| 20260509030009 | 75 | 242 | 0.0 | 1.0 | 0.00 | 0.00 | 0.00 | 95 | 1008.1 |
| 20260509024510 | 75 | 241 | 0.0 | 2.0 | 0.00 | 0.00 | 0.00 | 95 | 1008.0 |
| 20260509023015 | 75 | 141 | 0.0 | 1.0 | 0.00 | 0.00 | 0.00 | 95 | 1007.7 |
| 20260509021516 | 75 | 124 | 0.0 | 1.0 | 0.00 | 0.00 | 0.00 | 94 | 1007.9 |
| 20260509020007 | 75 | 100 | 0.0 | 1.0 | 0.00 | 0.00 | 0.00 | 94 | 1007.7 |
| 20260509014506 | 75 | 100 | 0.0 | 2.0 | 0.00 | 0.00 | 0.00 | 94 | 1007.6 |
| 20260509013015 | 75 | 30 | 0.0 | 2.0 | 0.00 | 0.00 | 0.00 | 94 | 1007.7 |
| 20260509011505 | 75 | 30 | 0.0 | 2.0 | 0.00 | 0.00 | 0.00 | 94 | 1007.6 |
| 20260509010004 | 75 | 15 | 0.0 | 1.0 | 0.00 | 0.00 | 0.00 | 94 | 1007.3 |
| 20260509004512 | 75 | 37 | 0.0 | 2.0 | 0.00 | 0.00 | 0.00 | 93 | 1007.7 |
| 20260509003002 | 75 | 3 | 1.0 | 4.0 | 0.00 | 0.00 | 0.00 | 93 | 1007.9 |
| 20260509001502 | 75 | 68 | 0.0 | 3.0 | 0.00 | 0.00 | 0.00 | 92 | 1006.9 |
| 20260509000100 | 75 | 114 | 0.0 | 4.0 | 0.00 | 0.00 | 0.00 | 92 | 1007.5 |
| 20260508234559 | 76 | 35 | 0.0 | 1.0 | 0.00 | 0.00 | 0.00 | 91 | 1007.9 |
| 20260508233132 | 76 | 35 | 0.0 | 2.0 | 0.00 | 0.00 | 0.00 | 90 | 1007.9 |
| 20260508231603 | 77 | 39 | 0.0 | 3.0 | 0.00 | 0.00 | 0.00 | 89 | 1007.6 |
| 20260508224558 | 77 | 83 | 0.0 | 3.0 | 0.00 | 0.00 | 0.00 | 88 | 1007.6 |
| 20260508223055 | 76 | 74 | 0.0 | 4.0 | 0.00 | 0.00 | 0.00 | 90 | 1007.5 |
| 20260508221552 | 75 | 314 | 0.0 | 0.0 | 0.00 | 0.00 | 0.00 | 89 | 1007.9 |
| 20260508220054 | 75 | 13 | 0.0 | 2.0 | 0.00 | 0.00 | 0.00 | 89 | 1007.8 |
| 20260508214551 | 75 | 255 | 0.0 | 1.0 | 0.00 | 0.00 | 0.00 | 89 | 1008.0 |
| 20260508213049 | 75 | 255 | 0.0 | 1.0 | 0.00 | 0.00 | 0.00 | 89 | 1008.2 |
| 20260508211548 | 75 | 255 | 0.0 | 2.0 | 0.00 | 0.00 | 0.00 | 89 | 1008.1 |
| 20260508210105 | 76 | 255 | 0.0 | 1.0 | 0.00 | 0.00 | 0.00 | 88 | 1008.2 |
| 20260508204546 | 75 | 124 | 0.0 | 2.0 | 0.00 | 0.00 | 0.00 | 87 | 1008.3 |
| 20260508203046 | 75 | 15 | 0.0 | 1.0 | 0.00 | 0.00 | 0.00 | 88 | 1008.5 |
| 20260508201542 | 75 | 15 | 0.0 | 2.0 | 0.00 | 0.00 | 0.00 | 87 | 1009.0 |
| 20260508200047 | 77 | 4 | 0.0 | 3.0 | 0.00 | 0.00 | 0.00 | 86 | 1008.9 |
| 20260508194545 | 76 | 28 | 0.0 | 2.0 | 0.00 | 0.00 | 0.00 | 87 | 1009.1 |
| 20260508193042 | 76 | 21 | 0.0 | 5.0 | 0.00 | 0.00 | 0.00 | 87 | 1009.1 |
| 20260508191535 | 74 | 294 | 0.0 | 4.0 | 0.00 | 0.00 | 0.00 | 91 | 1009.0 |
| 20260508190042 | 71 | 8 | 0.0 | 4.0 | 0.00 | 0.00 | 0.00 | 93 | 1009.2 |
| 20260508184552 | 70 | 93 | 1.0 | 7.0 | 0.00 | 0.00 | 0.00 | 95 | 1009.4 |
| 20260508183026 | 69 | 16 | 1.0 | 9.0 | 0.00 | 0.00 | 0.00 | 95 | 1009.9 |
| 20260508181542 | 69 | 43 | 3.0 | 9.0 | 0.00 | 0.00 | 0.00 | 94 | 1010.0 |
| 20260508180025 | 70 | 30 | 3.0 | 7.0 | 0.00 | 0.00 | 0.00 | 93 | 1010.1 |
| 20260508174524 | 70 | 20 | 0.0 | 3.0 | 0.00 | 0.00 | 0.00 | 94 | 1010.2 |
| 20260508173023 | 69 | 97 | 0.0 | 3.0 | 0.00 | 0.00 | 0.00 | 95 | 1010.2 |
| 20260508171522 | 68 | 359 | 2.0 | 7.0 | 0.00 | 0.00 | 0.00 | 95 | 1010.2 |
| 20260508170023 | 68 | 37 | 2.0 | 6.0 | 0.00 | 0.00 | 0.00 | 94 | 1010.6 |
| 20260508164520 | 68 | 26 | 2.0 | 9.0 | 0.00 | 0.00 | 0.00 | 94 | 1011.2 |
| 20260508163019 | 68 | 33 | 1.0 | 4.0 | 0.00 | 0.00 | 0.00 | 93 | 1011.1 |
| 20260508161518 | 68 | 25 | 0.0 | 4.0 | 0.00 | 0.00 | 0.00 | 93 | 1011.4 |
| 20260508160019 | 68 | 25 | 0.0 | 6.0 | 0.00 | 0.00 | 0.00 | 93 | 1011.7 |
| 20260508154517 | 68 | 13 | 2.0 | 8.0 | 0.00 | 0.00 | 0.00 | 94 | 1011.6 |
| 20260508153016 | 68 | 31 | 3.0 | 8.0 | 0.00 | 0.00 | 0.00 | 94 | 1011.6 |
| 20260508151515 | 68 | 17 | 6.0 | 9.0 | 0.00 | 0.00 | 0.00 | 95 | 1011.2 |
| 20260508150019 | 67 | 46 | 5.0 | 13.0 | 0.00 | 0.00 | 0.00 | 94 | 1011.0 |
| 20260508144531 | 67 | 24 | 2.0 | 7.0 | 0.00 | 0.00 | 0.00 | 94 | 1011.0 |
| 20260508143012 | 67 | 8 | 0.0 | 7.0 | 0.00 | 0.00 | 0.00 | 95 | 1011.3 |
| 20260508141511 | 67 | 17 | 1.0 | 7.0 | 0.00 | 0.00 | 0.00 | 95 | 1011.6 |
| 20260508140011 | 68 | 14 | 4.0 | 8.0 | 0.00 | 0.00 | 0.00 | 94 | 1011.3 |